Location: Newark
(49.9828°N, 3.1606°E)
Time: 07:23:39
(UTC+00:00)

Envisat - Pass Details

Date: 24 January 2020
Orbit: 764 x 766 km, 98.1° (Epoch: 20 February)

Event Time Altitude Azimuth Distance (km) Brightness Sun altitude
Rises 05:07:55 0° 28° (NNE) 3,244 6.6 -22.9°
Reaches altitude 10° 05:11:15 10° 51° (NE) 2,311 6.1 -22.3°
Maximum altitude 05:14:11 15° 87° (E) 1,960 6.1 -21.8°
Drops below altitude 10° 05:17:07 10° 122° (ESE) 2,301 6.4 -21.4°
Sets 05:20:24 0° 145° (SE) 3,220 6.8 -20.9°
